Regional Weather Roundup
Issued by NWS State College, PA

Home | Current Version | Previous Version | Graphics & Text | Print | Product List | Glossary Off
Versions: 1 2 3 4 5 6 7 8 9 10 11 12 13 14 15 16 17 18 19 20 21 22 23 24 25 26 27 28 29 30 31 32 33 34 35 36 37 38 39 40 41 42 43 44 45 46 47 48 49 50

000
ASUS41 KCTP 212110
RWRCTP

REGIONAL WEATHER ROUNDUP
NATIONAL WEATHER SERVICE STATE COLLEGE PA
400 PM EST SUN DEC 21 2014

Note: "fair" indicates few or no clouds below 12,000 feet with no
significant weather and/or obstructions to visibility.

* = STATION THAT DOES NOT REPORT PRECIPITATION /E.G. RAIN...SNOW...ETC/
    THUNDER OR FOG.

PAZ002>004-007>009-013>016-020>023-029>032-212200-
WESTERN PENNSYLVANIA

CITY           SKY/WX    TMP DP  RH WIND       PRES   REMARKS
ERIE           CLOUDY    33  21  61 S5        30.26F
MEADVILLE      CLOUDY    30  21  69 SE3       30.22F HAZE
FRANKLIN*      CLOUDY    28  19  69 SE3       30.24S
NEW CASTLE       N/A     31  21  66 CALM      30.26S
BEAVER COUNTY  CLOUDY    30  23  74 CALM      30.23F
BUTLER*        CLOUDY    30  21  69 E6        30.25S
PITTSBURGH INT MOCLDY    33  22  63 N3        30.23S
PITTSBURGH     CLEAR     33  19  56 CALM      30.21F
INDIANA*       CLOUDY    30  23  74 CALM      30.27F
LATROBE        PTCLDY    32  25  74 MISG      30.25F
WASHINGTON CO* NOT AVBL
$$

PAZ004>006-010>012-017>019-024>028-033>037-041-042-045-046-049>053-212200-
CENTRAL PENNSYLVANIA

CITY           SKY/WX    TMP DP  RH WIND       PRES   REMARKS
BRADFORD       CLOUDY    26  19  74 CALM      30.20S
DUBOIS         CLOUDY    28  20  71 CALM      30.21S
CLEARFIELD     CLOUDY    29  20  69 SE3       30.24S
JOHNSTOWN      CLEAR     30  21  69 NE5       30.17S
ALTOONA        CLEAR     33  21  61 CALM      30.23S
STATE COLLEGE  CLOUDY    30  21  69 CALM      30.25F
WILLIAMSPORT   PTCLDY    34  20  56 SW7       30.28S
SELINSGROVE    CLEAR     32  21  64 NW3       30.30S
FT INDIANTOWN  CLOUDY    32  22  67 N5        30.30R
CAPITAL CITY   MOCLDY    35  22  58 N5        30.31R
HARRISBURG     MOCLDY    33  21  61 N5        30.31R
YORK           CLEAR     35  21  56 N3        30.28S
$$

PAZ038>040-043-044-047-048-054-055-060>062-067>071-212200-
EASTERN PENNSYLVANIA

CITY           SKY/WX    TMP DP  RH WIND       PRES   REMARKS
SCRANTON       CLOUDY    31  20  63 N7        30.27S
MOUNT POCONO   CLOUDY    26  19  74 NE7       30.21S
ALLENTOWN      PTCLDY    35  21  56 N7        30.29S
QUAKERTOWN*    CLEAR     34  23  64 N6        30.28S
READING        CLEAR     34  21  59 W5        30.29R
LANCASTER      CLOUDY    34  22  61 N5        30.29S
COATESVILLE    CLEAR     34  25  69 N5        30.28R
POTTSTOWN      CLEAR     33  21  61 NW5       30.29S
BLUE BELL      CLEAR     37  23  56 CALM      30.28S
DOYLESTOWN     CLEAR     35  23  61 N5        30.27F
WILLOW GROVE   NOT AVBL
NORTH PHILA    CLEAR     38  21  50 N10       30.31S
PHILADELPHIA   PTCLDY    38  22  52 N8        30.30S
$$


USA.gov is the U.S. government's official web portal to all federal, state and local government web resources and services.